GFSGBSN_250_rhum_243.txt.gz
RH
87 91 83 77 70 52 63 91 100 100 100 100 100 100 100 100 91 71 74 72 77 96 99 100 98 86 76 80 95 70 84 44 41 41 30 44 60 49 50 73 100 100 100 100 100 100 100
94 100 99 98 83 80 58 60 89 100 100 100 100 100 100 100 100 100 94 78 90 88 90 85 100 100 100 71 58 42 65 93 74 76 58 47 41 40 46 71 100 100 100 100 100 85 100
100 100 100 97 99 75 93 40 73 62 100 100 100 100 100 100 100 100 100 100 88 100 100 100 100 100 100 100 100 75 81 68 80 100 82 58 73 63 37 77 100 100 86 100 100 100 100
100 100 100 100 98 91 72 57 58 73 64 100 98 100 100 100 100 100 100 100 100 100 100 100 100 100 91 99 100 94 98 100 82 100 96 100 100 76 73 78 62 84 77 96 100 92 100
100 100 100 100 100 98 91 98 64 79 78 66 74 69 100 100 100 100 100 100 100 100 100 100 100 100 100 92 82 72 68 69 82 98 62 66 86 100 100 100 78 100 73 90 100 100 100
71 72 85 100 100 100 100 100 86 68 81 81 81 77 63 58 62 85 100 100 100 100 100 100 100 100 100 100 100 87 70 59 61 56 62 76 100 94 72 50 68 90 90 91 100 100 100
58 45 68 86 86 100 100 100 100 85 100 95 87 87 86 82 90 84 57 72 100 100 100 100 100 91 60 78 100 91 98 99 71 81 64 74 100 100 100 83 60 41 56 100 96 100 100
100 100 93 78 88 87 89 100 100 100 99 100 89 100 100 95 91 100 80 77 89 86 72 71 93 100 93 74 95 86 98 100 94 100 92 94 100 100 100 100 100 95 98 82 100 100 100
19 68 98 98 100 74 70 87 100 100 100 100 100 94 99 98 100 100 92 98 94 81 77 75 62 97 83 46 90 100 100 100 100 100 100 100 100 100 99 99 100 100 100 100 100 100 100
16 19 17 35 30 46 84 39 49 81 100 100 100 100 100 100 100 100 100 100 100 100 100 100 92 58 51 50 100 100 100 100 92 100 100 100 100 100 100 99 93 100 100 100 100 100 100
17 19 18 20 18 17 16 16 26 46 65 100 100 100 100 100 100 100 100 100 100 100 100 100 88 76 72 90 100 100 100 86 95 100 100 100 100 100 100 100 100 100 100 100 100 100 100
22 21 21 22 22 19 19 16 13 16 35 63 91 94 100 100 100 100 100 100 100 99 100 100 93 82 100 100 100 97 89 76 71 99 100 100 100 100 100 100 100 100 100 100 96 94 99
22 22 22 25 31 27 20 20 17 15 11 10 14 41 61 86 100 100 100 100 100 100 100 100 98 88 93 86 85 88 94 100 99 100 100 100 100 100 100 100 100 100 100 94 85 92 98
24 20 25 25 32 32 31 24 19 18 16 12 14 22 25 39 65 91 100 100 100 100 100 100 100 100 100 100 100 100 100 100 100 100 100 100 100 100 100 100 100 100 88 76 68 76 72
28 26 26 28 31 30 34 36 27 19 16 14 15 18 25 40 69 62 85 99 100 100 100 100 100 100 100 100 100 100 100 100 100 100 99 100 100 100 100 94 84 71 59 55 48 39 38
28 29 28 28 33 36 33 39 39 26 18 16 15 13 27 29 37 29 41 51 68 85 97 93 97 97 100 100 93 100 100 99 91 81 82 78 90 92 75 54 47 42 35 31 33 30 35
33 30 30 29 37 31 34 40 44 37 27 19 14 14 20 28 22 13 18 50 59 64 84 78 94 90 95 93 86 93 75 70 67 70 62 60 55 51 39 34 27 22 20 32 29 40 23
34 31 33 31 35 36 39 41 42 42 32 33 19 16 15 19 16 14 22 49 69 84 100 100 100 100 86 76 91 76 63 60 59 64 50 37 30 29 32 32 29 34 54 75 63 60 66
35 34 33 33 33 38 40 39 38 42 39 36 100 67 15 13 13 19 28 33 51 87 100 100 100 100 99 83 68 62 66 62 42 34 34 36 28 40 75 92 88 94 97 100 100 100 100
33 36 37 34 35 42 45 47 47 46 45 39 51 100 60 24 20 19 26 37 48 55 70 84 86 84 92 88 58 48 42 37 39 55 84 99 100 100 99 100 100 100 100 94 100 97 67
39 33 43 42 45 49 50 49 41 50 49 44 39 43 98 94 96 90 59 50 38 44 48 46 44 51 54 38 41 57 61 64 88 100 100 100 100 100 100 100 100 95 75 90 70 87 66
31 38 41 40 43 47 64 63 52 44 50 56 48 43 45 100 100 100 100 100 86 82 74 84 81 87 68 74 88 86 91 100 100 100 100 100 100 100 100 91 74 70 72 78 100 100 79
33 35 41 46 47 51 46 61 51 60 55 51 69 51 49 43 76 100 100 100 100 100 100 100 100 100 71 66 70 80 95 100 100 100 100 100 97 75 66 63 56 79 86 96 95 90 76
26 27 29 36 41 46 58 51 54 62 61 83 80 66 56 49 42 45 47 92 100 100 100 100 100 100 100 100 100 100 100 100 100 100 85 78 76 64 58 69 61 70 92 93 93 85 81
19 22 32 41 49 56 65 71 73 74 89 81 68 76 79 60 53 48 44 41 51 85 98 100 100 100 100 100 100 100 100 100 84 64 71 83 89 67 65 65 79 87 97 86 63 73 71
16 21 26 31 47 55 71 74 74 78 86 86 79 90 94 80 66 59 55 45 43 44 46 51 51 47 46 49 56 60 65 55 50 72 93 94 90 78 74 66 74 94 79 64 59 65 62
20 24 26 33 46 51 67 66 78 88 82 82 91 100 97 99 88 74 67 62 58 52 57 61 57 56 58 49 44 54 53 60 61 65 82 87 75 80 81 76 85 83 72 58 55 50 47
15 19 25 35 45 56 62 59 66 78 80 86 100 99 100 100 100 94 92 81 77 70 67 68 63 60 57 57 61 58 61 69 75 79 86 85 82 87 87 80 80 84 69 65 52 45 49
13 16 21 26 38 38 40 56 69 78 90 85 91 99 100 93 99 100 100 93 98 97 93 85 79 80 73 74 78 81 78 78 88 86 92 88 93 86 86 87 79 79 73 51 47 56 76

GFSGBSN_250_rhum_246.txt.gz
RH
69 75 58 62 77 61 60 57 84 93 90 81 96 100 97 100 100 99 100 100 98 100 100 75 74 83 97 83 91 100 100 100 84 73 66 64 88 95 100 100 100 100 100 89 100 95 96
98 73 81 70 52 67 77 93 69 64 56 47 88 95 99 99 100 100 100 100 100 100 100 100 100 100 95 94 96 100 100 100 100 100 99 100 100 100 100 100 99 75 100 100 100 100 100
100 100 100 100 100 100 100 100 100 100 100 83 67 59 50 81 86 91 100 100 100 100 100 100 100 100 100 100 96 100 100 100 96 89 100 100 100 96 95 76 66 66 94 100 96 99 100
100 100 100 100 100 100 87 92 94 100 100 100 81 71 56 43 61 69 93 99 100 100 83 100 100 100 100 100 100 78 83 64 72 68 96 100 100 84 77 78 85 92 100 91 91 95 99
100 100 100 100 100 100 100 95 73 72 66 61 68 91 85 60 50 48 71 100 95 92 100 100 100 100 100 98 100 100 100 100 98 93 93 97 100 98 100 84 86 97 100 100 98 92 87
54 77 92 100 100 100 100 100 99 95 87 88 74 94 93 94 61 68 60 79 97 100 96 100 100 100 100 100 100 91 100 100 95 98 89 78 99 100 100 100 98 99 100 100 100 78 69
40 35 37 42 88 100 100 100 100 100 100 96 100 100 100 100 82 85 92 60 78 87 98 100 98 100 100 82 98 90 100 100 100 100 100 77 64 100 100 100 100 100 100 100 97 84 96
100 71 57 30 25 36 64 96 100 100 100 100 100 100 100 100 99 78 81 100 61 85 93 100 98 99 98 100 80 70 80 95 100 95 84 88 68 51 97 100 100 100 99 93 87 96 97
79 99 100 100 94 75 51 40 68 83 87 98 100 100 99 92 97 91 94 92 69 81 72 94 100 100 100 90 97 98 100 100 98 87 78 81 79 63 88 100 100 96 92 98 100 93 95
14 19 69 89 78 100 79 68 52 46 45 52 88 100 100 99 100 100 98 92 99 85 98 100 100 100 96 97 100 100 100 100 100 100 100 88 94 86 99 100 97 100 99 96 92 92 100
15 16 16 18 16 35 24 15 25 25 29 44 64 92 100 100 100 99 100 100 100 100 92 91 73 68 100 98 100 100 100 100 100 100 100 100 100 100 97 96 100 100 100 97 100 100 100
15 15 15 15 14 15 14 15 17 35 46 31 47 74 80 91 93 93 90 98 100 100 100 100 100 100 100 100 100 100 100 100 100 100 100 100 93 100 100 100 100 99 96 97 97 100 100
19 18 16 15 15 16 15 16 17 16 17 15 17 20 14 32 48 42 70 94 100 100 100 100 100 100 100 100 100 100 100 100 100 100 100 100 100 100 100 99 96 87 91 97 100 100 100
24 20 20 20 20 19 18 18 19 20 19 21 20 14 12 10 12 14 22 56 90 91 100 100 100 100 100 100 100 100 100 100 100 100 100 100 100 100 100 100 100 100 99 92 98 100 100
27 26 24 23 21 21 21 21 22 21 22 19 21 28 16 10 10 12 11 10 13 53 81 87 98 100 100 100 100 100 100 100 100 100 100 100 100 99 100 100 99 98 89 90 88 88 86
29 27 28 27 26 26 24 24 24 22 25 24 19 21 27 17 11 9 12 10 10 20 36 47 79 94 100 100 100 100 100 100 100 100 100 99 100 100 98 90 84 69 74 71 64 56 40
30 30 30 33 30 27 30 27 25 26 26 24 27 22 18 22 17 12 13 13 12 11 36 85 100 100 100 100 100 100 100 100 100 99 89 86 85 81 77 68 61 61 45 34 24 28 28
32 32 32 30 31 31 31 31 29 29 28 28 29 33 28 12 17 18 16 13 13 13 14 38 86 90 95 93 90 87 88 91 84 80 73 68 67 59 67 57 50 32 26 23 29 72 77
37 35 34 35 35 38 35 32 32 30 35 38 31 34 38 30 10 22 28 22 18 16 16 17 40 34 42 47 40 31 37 48 48 53 65 64 66 64 46 33 28 33 40 67 99 100 98
41 40 38 36 39 38 37 33 32 33 33 33 32 34 35 41 45 18 26 24 23 21 21 27 47 52 39 28 22 20 32 45 75 80 67 52 40 28 24 31 64 74 100 100 100 97 69
37 42 39 40 38 35 40 35 34 32 34 36 32 36 39 42 61 59 26 25 22 28 26 35 55 59 56 45 40 34 51 46 41 41 29 32 42 33 61 87 98 100 100 100 91 65 41
32 34 36 44 49 42 37 45 35 35 37 42 37 36 42 48 53 82 53 38 31 31 23 27 44 49 42 44 40 40 37 30 30 37 42 74 98 89 100 100 100 100 100 98 74 54 55
26 32 40 45 42 43 46 47 38 37 42 43 39 40 44 48 65 62 67 100 97 55 51 53 42 29 34 34 32 33 41 45 64 83 100 100 82 98 100 100 100 84 71 64 68 62 69
25 33 37 41 42 45 45 39 40 40 41 42 42 42 42 67 62 70 73 58 100 100 100 93 92 74 54 34 31 39 60 70 86 89 99 100 100 100 100 100 80 69 82 80 84 70 72
18 20 23 27 36 40 33 43 42 40 42 44 52 44 51 60 80 89 75 71 52 92 100 100 100 99 95 82 76 85 88 90 99 100 100 100 100 100 100 76 51 75 69 71 83 94 83
12 15 17 20 24 28 30 43 42 40 42 47 49 49 49 66 66 86 78 60 70 53 56 66 99 100 100 100 100 100 100 100 100 100 100 84 68 61 53 57 69 88 74 75 84 92 90
10 11 12 15 20 26 32 40 39 43 44 43 51 53 60 66 65 74 89 78 86 69 58 51 47 40 46 80 92 98 93 87 76 68 72 66 59 69 68 68 81 82 69 75 85 79 71
12 13 14 17 21 26 28 31 37 39 40 46 54 61 58 72 92 89 88 87 72 81 78 65 55 48 47 49 47 55 52 59 63 66 66 70 72 77 79 90 91 84 82 80 75 77 60
13 14 17 18 19 27 27 28 31 35 35 43 43 62 60 55 77 95 98 90 84 90 100 90 73 64 57 53 56 60 62 68 69 67 71 73 83 89 96 100 97 78 76 78 76 67 54

GFSGBSN_250_rhum_252.txt.gz
RH
99 100 80 89 100 78 100 97 99 91 76 81 100 100 99 100 95 100 84 98 95 98 100 82 88 97 95 100 100 96 67 47 100 100 100 62 77 96 62 100 100 100 100 100 96 99 100
100 100 100 98 91 100 96 90 87 97 100 88 92 98 100 97 100 99 93 100 55 80 99 100 100 91 85 76 94 100 100 100 100 95 82 95 100 100 100 100 100 100 100 100 100 68 65
100 100 100 100 100 99 88 89 91 59 83 100 84 84 94 96 100 100 100 100 100 88 66 99 100 93 68 65 75 99 99 100 100 100 98 92 99 100 100 100 100 99 100 96 75 79 60
100 100 100 100 100 100 95 87 79 56 88 98 83 100 92 100 100 100 100 91 96 97 97 95 80 67 64 50 57 71 84 79 66 69 79 97 99 100 84 57 55 88 67 83 86 92 96
100 100 100 100 100 100 100 100 100 75 90 83 81 100 80 78 74 99 100 100 100 92 81 77 87 87 78 87 84 70 75 69 60 70 80 92 89 100 99 91 63 44 56 72 94 100 100
98 100 100 100 100 100 100 100 98 99 93 95 92 87 67 73 76 87 99 100 93 100 88 85 99 100 99 100 100 77 82 69 69 77 75 65 75 87 100 100 100 100 100 100 100 100 99
65 74 92 100 100 100 100 100 100 100 84 91 100 100 69 62 80 85 90 96 100 100 100 100 100 99 96 100 100 89 75 86 76 77 72 62 67 100 100 100 100 100 100 100 100 100 100
100 84 69 96 86 100 100 100 100 100 100 100 100 84 64 67 66 72 69 72 78 67 80 100 100 95 80 91 100 100 100 96 66 79 91 93 72 68 87 98 100 100 100 100 100 89 100
100 100 100 90 90 86 77 92 100 100 100 100 100 100 100 100 100 100 86 95 70 64 65 86 100 97 89 84 72 67 88 62 68 85 95 62 79 79 79 96 93 99 100 90 86 82 92
100 100 100 100 100 87 64 67 80 100 100 100 100 100 100 100 100 100 100 100 91 95 100 100 58 55 50 39 44 71 51 70 41 48 96 74 42 53 73 76 76 84 92 82 97 96 96
88 96 100 100 100 98 71 72 86 100 100 100 100 100 100 100 100 100 100 100 100 100 100 98 100 95 93 97 100 100 90 83 68 42 38 43 51 54 50 40 54 73 66 77 78 76 91
26 66 79 100 100 100 100 78 73 77 97 100 100 100 100 100 100 100 100 100 100 100 100 100 100 100 100 99 89 89 95 100 100 100 100 96 86 69 61 62 44 59 68 76 78 85 100
18 17 24 73 76 100 100 100 100 78 82 75 72 78 91 100 96 93 94 91 100 99 93 91 88 92 86 84 78 80 70 72 76 92 100 100 100 100 100 98 99 96 94 98 100 100 100
18 17 18 14 19 47 88 100 100 100 100 100 99 88 81 94 81 76 56 55 65 82 80 71 64 69 74 76 66 45 47 52 58 62 70 95 100 100 100 100 100 100 100 100 100 100 100
20 18 18 18 17 14 24 55 85 98 100 100 100 100 95 100 100 100 100 66 74 68 58 64 66 57 57 52 38 32 46 58 42 46 56 65 82 100 100 100 100 100 100 100 100 100 100
21 22 22 22 19 18 17 16 19 32 33 67 99 90 79 65 91 98 96 87 71 42 34 30 34 34 27 22 18 24 25 24 23 20 25 41 62 86 100 100 100 100 100 100 100 100 100
26 24 22 23 22 22 22 20 19 21 21 21 29 61 65 44 30 46 47 46 33 26 27 25 19 18 17 14 13 15 14 13 13 13 14 17 28 44 82 88 91 95 100 98 100 100 100
33 31 28 24 22 26 22 24 24 26 25 22 20 18 23 24 28 19 21 19 19 18 18 20 20 20 18 14 12 14 12 10 10 12 12 12 14 31 33 68 66 86 98 100 100 100 100
35 34 29 29 27 24 23 23 25 29 28 28 24 24 20 20 19 16 21 19 20 19 19 22 21 21 20 23 16 11 14 14 12 12 12 13 14 35 61 90 91 97 100 98 95 100 93
34 36 36 33 30 30 28 26 28 28 29 32 31 26 24 24 19 18 22 22 20 25 24 23 24 21 24 24 21 16 13 18 17 19 17 16 16 19 28 34 59 100 100 96 84 66 47
36 35 34 30 35 34 30 29 31 28 32 34 35 31 30 26 27 21 23 23 24 24 28 26 24 25 26 27 28 26 20 23 22 24 23 19 18 18 28 56 52 97 99 71 59 46 36
33 34 35 33 36 41 34 39 31 31 34 32 34 31 34 31 36 26 28 29 31 28 28 28 29 28 26 26 30 28 33 37 31 46 30 27 27 30 55 41 32 53 68 49 34 34 49
36 33 32 38 37 35 30 36 40 38 34 42 39 34 34 37 38 33 32 33 34 31 30 27 28 25 25 31 26 30 31 38 37 39 40 35 37 40 40 36 32 51 42 40 46 76 75
24 35 30 31 34 36 31 30 38 37 38 32 34 34 35 43 38 40 36 34 32 34 32 29 26 27 28 26 32 29 26 31 41 46 39 45 50 40 57 55 53 48 55 54 91 92 67
20 26 30 33 29 31 34 37 33 36 39 41 43 35 34 41 41 49 47 40 41 49 49 44 33 28 28 29 31 29 34 37 45 51 82 57 45 48 66 64 47 53 77 75 60 63 60
21 21 31 36 31 27 31 30 32 35 39 41 40 43 36 39 37 43 44 45 42 51 54 42 35 36 35 29 32 32 36 46 59 72 84 92 90 99 87 55 50 95 98 97 63 67 66
18 25 27 32 39 33 33 33 30 31 33 42 38 37 38 46 42 41 44 40 44 44 42 44 44 44 40 34 33 38 44 46 61 93 91 79 75 70 63 50 64 100 75 100 77 71 70
15 17 20 20 22 26 28 25 25 31 30 34 47 36 32 39 41 42 39 43 44 44 46 54 50 45 47 45 39 43 42 42 47 65 91 83 72 63 58 83 100 100 99 100 78 72 78
13 14 15 16 15 16 17 19 19 21 30 33 34 28 30 30 33 40 44 45 46 49 47 47 46 52 48 44 46 50 53 44 42 64 83 100 98 94 100 100 100 100 100 77 75 79 72

GFSGBSN_250_rhum_255.txt.gz
RH
96 71 75 84 100 74 91 96 100 100 91 100 100 100 99 90 77 98 99 100 100 99 96 90 99 66 83 74 100 100 100 100 97 95 84 100 96 77 92 96 74 67 97 100 100 95 94
100 100 96 73 72 89 94 82 98 96 88 90 100 100 100 100 100 98 93 100 100 100 92 100 96 81 75 60 63 97 98 97 88 68 69 86 98 100 99 92 80 71 93 100 93 93 78
100 100 100 100 85 83 100 100 69 97 100 92 68 94 87 100 100 100 100 100 100 100 100 98 100 100 100 98 66 79 100 91 77 59 51 58 69 87 75 83 86 90 98 99 100 100 100
100 100 100 100 100 100 93 98 67 61 79 74 81 99 100 100 83 83 97 97 100 93 100 99 100 100 100 100 100 100 100 87 79 84 98 100 92 90 92 86 78 81 77 95 85 100 85
100 100 100 100 100 100 100 99 82 74 82 99 87 90 93 85 90 93 83 81 99 100 98 100 100 98 100 100 100 100 100 100 100 100 100 100 100 100 94 76 69 59 64 82 76 85 91
100 100 100 100 100 100 100 100 100 100 100 88 100 94 84 57 58 99 83 64 84 74 76 100 92 97 93 100 100 100 100 96 100 100 100 90 82 87 76 40 44 44 36 44 61 78 62
100 100 100 100 100 100 100 100 100 100 100 100 100 98 91 89 75 64 64 38 53 73 82 100 94 65 70 73 91 100 100 100 100 100 100 69 64 56 38 27 24 25 28 41 32 31 32
98 100 98 100 100 100 100 100 100 100 100 100 100 100 91 100 94 92 92 81 73 68 84 75 58 53 48 47 74 82 92 74 63 80 92 64 42 36 32 25 27 28 22 34 53 37 41
73 100 100 100 96 100 100 100 100 100 100 100 100 100 100 96 83 72 76 76 72 56 59 86 80 69 51 60 51 57 50 52 55 61 74 53 35 26 26 38 40 43 48 48 58 66 54
100 100 100 100 100 91 100 100 100 100 100 100 100 100 100 100 100 100 100 92 85 97 74 72 81 68 66 55 59 43 39 48 50 39 29 36 31 48 72 87 79 86 82 87 77 80 74
100 100 100 100 100 100 100 100 99 80 76 99 100 100 100 100 100 100 100 100 98 98 89 77 76 74 75 84 85 87 66 56 53 43 60 92 100 94 83 71 65 63 61 63 68 83 85
100 100 100 100 100 100 100 100 90 76 78 57 60 94 91 100 100 100 100 100 99 100 100 100 100 100 100 100 100 100 100 100 100 100 96 93 92 80 69 49 42 42 49 63 95 100 100
50 90 97 100 100 100 100 100 98 84 91 88 66 64 66 84 100 100 100 100 81 100 100 100 100 100 100 100 100 100 94 82 76 77 76 67 60 56 46 30 30 36 55 91 100 100 100
22 32 43 73 100 100 100 100 100 100 72 98 86 72 60 77 74 100 100 100 100 100 100 100 100 100 100 100 97 99 93 79 80 78 72 49 38 30 18 25 28 32 82 100 100 100 100
17 18 18 21 56 85 58 94 100 100 96 98 88 59 67 66 60 97 100 100 98 99 100 96 96 93 80 76 90 81 76 69 53 47 47 38 30 20 16 16 15 18 39 62 82 94 98
18 16 16 17 16 36 35 42 91 83 100 100 100 100 77 78 61 90 91 89 89 98 84 89 73 83 94 76 55 51 46 47 48 44 40 31 19 12 14 14 14 14 14 18 22 31 70
21 20 20 18 17 18 18 19 27 51 43 84 95 99 100 100 100 100 100 100 100 100 96 98 100 97 73 67 57 52 60 58 53 43 35 19 9 11 14 14 13 13 12 12 16 25 80
22 22 23 22 21 20 18 19 19 24 28 27 52 88 86 100 100 100 100 100 100 96 69 100 86 59 46 49 44 54 44 31 28 23 14 10 10 12 15 14 14 13 13 12 19 42 66
21 23 25 27 26 24 22 21 18 20 22 24 22 25 60 80 79 89 99 99 100 90 78 45 54 41 38 24 20 21 22 22 20 16 12 10 12 16 19 17 15 14 14 14 15 47 55
23 24 26 26 29 30 29 24 21 22 24 22 23 22 20 18 33 64 63 71 68 71 71 26 29 28 27 25 25 24 23 21 24 21 15 12 11 19 26 20 18 16 15 27 27 57 74
30 24 25 22 24 28 27 30 26 25 22 25 25 23 23 23 21 24 22 24 26 29 48 42 24 24 25 22 24 27 24 26 28 24 21 16 19 22 28 23 20 18 40 50 40 50 46
30 28 37 30 30 32 31 34 30 33 30 28 26 24 22 22 25 24 25 25 24 23 25 26 26 21 22 23 25 25 28 28 26 26 24 25 24 24 31 27 21 39 45 38 41 36 37
33 39 33 30 37 33 33 38 36 34 29 36 26 26 25 26 25 25 26 31 31 31 26 24 28 25 23 28 30 28 28 29 27 29 25 31 31 34 41 32 40 56 50 48 50 52 56
22 30 42 41 37 37 37 34 33 36 35 34 33 25 33 28 30 30 30 29 32 32 29 24 25 25 27 28 30 29 30 27 28 29 31 39 36 39 54 55 55 60 59 65 72 58 46
26 33 37 44 36 42 42 41 35 39 53 36 32 36 29 35 32 31 30 28 30 32 38 30 29 24 32 27 33 31 30 28 29 31 35 38 39 34 33 62 67 74 80 74 62 54 47
19 26 28 44 47 31 38 37 37 42 44 45 28 32 28 28 31 34 37 33 37 37 34 33 36 33 29 32 32 28 31 32 30 32 36 37 38 31 39 45 50 82 63 66 56 53 45
16 21 26 28 34 42 32 34 33 37 40 48 41 28 27 31 34 36 35 34 34 33 34 34 34 36 36 32 26 30 35 35 33 37 45 36 41 42 44 43 63 90 67 89 77 53 52
13 14 17 24 27 34 47 30 38 46 41 38 41 35 36 31 36 34 35 31 37 41 37 36 36 37 41 38 36 33 33 32 29 34 34 36 36 41 36 39 54 94 71 62 85 82 100
8 8 12 15 20 31 30 36 32 33 43 35 37 36 38 41 35 34 34 34 36 38 43 44 39 41 37 36 35 34 36 37 36 33 34 38 42 41 42 42 53 64 79 78 86 96 94

GFSGBSN_250_rhum_258.txt.gz
RH
97 97 76 82 89 89 97 100 100 100 100 100 100 100 100 100 100 100 100 100 87 75 84 100 95 100 100 100 100 97 100 99 77 69 60 70 68 68 94 73 67 94 100 98 100 82 73
91 77 92 81 83 88 79 86 97 100 100 100 100 96 96 100 100 100 100 100 100 100 100 91 93 100 89 100 100 94 100 100 100 100 96 85 73 85 90 78 96 100 100 98 74 61 47
94 98 86 96 100 89 82 86 81 77 87 100 100 100 95 90 87 100 99 100 100 100 100 95 99 100 100 100 100 100 100 100 100 100 100 100 99 100 100 100 100 100 79 72 57 41 34
100 100 100 95 88 74 80 78 91 98 98 87 100 100 99 97 98 99 99 100 89 96 100 89 100 91 94 76 100 100 100 100 100 100 100 100 98 97 100 100 95 70 53 36 30 26 25
100 100 100 100 98 80 72 90 90 97 100 100 100 100 98 98 90 93 96 92 78 59 54 94 83 99 99 72 48 100 87 91 100 89 82 79 78 93 80 61 52 44 39 28 27 22 21
100 100 100 100 100 100 96 83 67 76 100 96 88 82 85 89 100 100 74 50 57 66 76 95 100 100 100 100 64 60 60 47 76 97 71 52 60 50 48 49 58 49 31 25 18 20 33
100 100 100 100 100 100 100 100 99 67 60 62 62 68 86 87 87 93 94 66 66 91 100 97 72 79 68 76 53 59 60 61 52 54 48 46 46 36 32 29 26 26 24 21 26 31 45
100 100 100 100 100 100 100 100 100 100 100 93 82 70 59 84 85 81 76 81 93 85 83 88 82 55 57 60 69 63 43 52 54 52 57 53 48 42 36 29 30 31 23 36 62 92 76
100 100 100 100 100 100 100 100 100 100 100 100 100 99 96 92 89 86 88 90 92 94 85 100 65 68 76 72 70 74 78 59 61 57 54 50 43 38 41 37 39 41 65 93 90 72 50
100 100 100 100 100 100 100 100 100 100 100 100 100 100 100 100 100 98 91 99 99 99 90 74 69 93 87 79 96 90 75 73 66 63 47 47 36 36 41 71 60 98 100 82 55 39 25
100 100 100 100 100 100 100 100 100 100 100 100 100 100 94 100 94 100 100 92 89 95 98 100 99 93 82 75 66 66 67 55 51 47 42 49 55 52 89 100 99 88 59 48 40 28 16
100 100 100 100 100 100 100 100 100 100 100 100 100 94 94 88 100 100 100 100 100 100 100 100 100 97 91 84 82 74 67 59 56 86 87 100 95 93 86 82 67 60 38 33 29 20 10
100 100 100 100 100 100 100 100 100 100 100 100 100 99 100 97 96 100 100 100 100 100 100 96 93 98 99 97 97 97 86 100 100 93 99 89 85 83 75 60 58 33 37 19 12 11 12
95 100 100 100 100 100 100 100 100 100 100 100 100 100 100 93 90 89 100 100 98 90 92 98 88 100 100 100 100 100 100 100 91 84 76 72 68 55 49 46 37 43 27 19 11 11 12
85 92 100 100 100 100 100 100 100 100 100 100 100 100 95 100 100 93 87 89 77 78 100 100 100 100 100 100 100 100 100 99 100 90 68 60 50 51 44 37 40 29 16 11 12 13 11
29 80 85 96 100 100 100 100 100 100 100 100 100 100 100 100 100 80 82 83 64 69 72 87 100 100 100 100 100 100 91 100 97 72 55 53 49 49 45 33 21 13 10 11 14 14 13
21 40 55 61 90 99 98 100 100 100 100 100 100 100 100 100 92 87 93 84 83 85 69 76 88 100 100 100 99 92 97 93 83 76 67 58 54 43 32 21 15 10 10 12 14 16 16
20 26 44 41 50 63 98 93 93 100 100 100 100 100 100 100 91 67 90 100 82 78 72 77 88 100 100 100 100 100 99 75 76 70 62 48 34 32 22 15 12 12 11 12 16 18 16
18 19 21 31 29 45 58 80 58 86 94 93 99 99 100 81 97 86 77 97 100 98 100 93 92 100 100 100 83 100 91 68 62 58 45 33 28 24 20 16 14 13 12 18 18 21 18
21 19 21 21 25 26 44 46 48 51 63 72 81 79 94 89 74 86 100 100 100 100 100 100 100 100 100 100 97 74 84 62 40 36 33 27 25 25 25 20 17 15 15 16 19 22 18
22 24 20 22 24 24 22 37 32 46 43 44 46 65 66 81 68 48 72 85 81 98 100 100 100 100 100 100 99 84 72 50 37 33 26 24 24 26 29 26 21 21 23 20 26 23 24
22 18 22 23 23 26 24 22 24 23 36 38 46 32 48 58 46 34 41 62 58 43 56 75 95 100 96 89 79 90 80 55 37 37 28 30 28 27 27 25 24 28 24 31 30 50 29
31 26 23 25 26 28 33 28 25 23 23 25 31 34 20 23 36 35 28 23 31 42 32 32 40 50 72 64 67 66 73 63 39 28 27 29 29 30 28 27 26 31 33 31 48 43 34
26 30 32 31 26 27 29 29 33 27 24 26 23 23 21 21 22 23 23 22 24 26 32 28 26 26 28 37 27 26 27 32 34 29 27 29 31 29 29 26 31 28 24 32 44 43 52
20 25 32 32 30 31 31 35 31 33 30 28 22 19 21 20 21 21 23 23 22 25 25 25 27 25 25 27 30 28 29 25 25 27 30 30 28 28 30 29 35 30 32 34 35 36 34
19 23 34 33 33 46 43 36 38 33 36 29 25 23 23 22 20 21 23 25 23 25 23 25 24 26 24 26 26 26 29 28 25 26 30 31 31 32 39 29 36 34 34 41 44 40 29
18 23 29 28 38 39 36 36 39 39 44 42 32 29 25 26 24 24 28 25 22 22 25 24 23 27 28 27 26 30 32 29 29 32 30 28 33 29 36 32 40 44 41 46 47 42 38
14 18 26 32 33 37 41 37 40 48 52 48 41 34 33 30 30 25 25 29 25 25 22 25 27 26 28 28 30 33 30 33 34 35 33 32 32 35 34 38 42 45 42 43 50 44 38
12 15 19 24 33 41 46 53 48 41 42 46 52 49 44 32 30 29 34 33 31 31 32 26 28 29 28 28 30 27 28 31 32 33 34 34 42 39 40 40 42 46 47 43 38 41 41

GFSGBSN_250_rhum_264.txt.gz
RH
95 79 78 99 100 100 100 100 94 94 86 83 78 93 98 92 100 100 92 96 87 80 87 89 98 100 100 100 98 99 100 100 100 100 100 100 90 96 87 66 51 37 34 38 41 42 47
100 93 69 79 100 100 100 100 100 100 87 82 95 91 100 100 62 76 100 97 100 92 100 100 100 82 96 58 61 65 79 100 94 78 68 76 74 53 61 62 39 39 42 41 43 44 42
100 100 92 64 77 100 100 100 100 100 100 100 92 100 89 91 100 62 52 68 81 97 100 100 100 100 90 95 99 100 100 100 100 100 87 80 73 56 50 40 39 50 47 49 61 57 58
100 100 100 80 67 77 87 98 100 100 100 100 100 100 100 96 95 86 70 90 96 100 100 100 98 93 100 100 100 100 100 100 100 100 99 77 98 91 53 53 77 49 53 48 57 58 67
100 100 100 100 84 70 63 62 80 93 100 100 100 100 100 100 98 90 84 85 88 99 100 90 96 100 100 100 100 100 100 100 100 100 91 94 100 79 56 67 57 58 62 57 60 62 52
100 100 100 100 100 94 73 63 56 62 77 100 100 100 100 100 100 100 96 91 80 89 100 100 100 100 100 100 100 100 98 100 97 93 99 100 100 80 66 70 69 75 76 56 57 52 36
38 100 100 100 100 100 100 86 72 50 48 59 79 98 100 100 100 100 100 93 95 99 98 100 100 100 100 100 100 100 100 100 94 85 91 100 93 91 86 68 80 87 72 56 44 37 30
12 24 98 100 100 100 100 100 100 80 56 46 44 55 70 84 98 100 97 80 74 89 99 95 97 100 92 89 85 82 70 100 100 97 100 100 97 91 72 79 95 82 66 57 40 33 48
12 12 16 98 100 100 100 100 100 100 95 72 53 42 47 55 71 79 86 97 98 100 100 100 100 100 100 95 100 100 100 93 96 100 96 98 94 84 84 87 80 63 63 44 39 35 45
13 14 14 22 100 100 100 100 100 100 100 98 95 73 70 50 43 48 53 69 83 88 91 95 100 98 98 82 71 78 79 90 86 64 74 88 78 65 61 52 61 60 38 40 25 39 51
14 16 14 15 45 100 100 100 96 100 100 100 100 100 98 58 65 42 54 46 50 50 54 58 80 93 93 97 82 61 57 60 55 48 61 66 59 58 47 64 57 50 50 25 32 57 52
17 16 17 15 18 88 100 100 100 92 100 100 100 99 100 98 80 67 52 46 58 55 50 46 55 58 51 49 50 47 40 40 45 45 53 53 52 55 64 62 63 41 23 28 40 63 43
21 17 18 17 17 40 100 100 100 100 100 100 100 99 97 100 97 100 100 100 100 96 88 82 73 64 59 65 56 50 52 53 57 69 78 63 68 70 80 69 38 29 32 47 58 48 45
27 22 18 17 18 21 70 100 100 97 100 100 100 100 95 100 96 81 84 78 95 100 100 100 100 96 87 87 90 82 81 82 95 92 64 72 89 86 64 42 31 47 37 44 36 39 44
30 26 24 20 19 20 43 91 100 100 100 100 100 100 100 100 100 86 80 78 94 89 92 100 98 99 93 100 92 86 81 79 82 65 59 85 86 62 50 41 36 30 51 32 30 41 44
33 28 28 25 19 20 29 41 100 100 100 100 100 100 100 100 100 93 77 75 86 88 96 88 85 92 99 92 89 89 84 67 75 82 89 86 67 61 55 41 38 38 39 30 33 37 35
32 33 30 29 23 20 24 26 69 100 100 100 100 100 100 100 100 99 93 99 99 84 90 92 89 91 89 77 92 76 88 86 84 83 82 83 68 65 53 46 40 43 43 43 38 40 42
30 36 30 32 30 20 20 23 25 100 100 100 100 100 100 100 100 100 100 98 84 84 90 90 96 87 77 80 91 71 64 64 74 95 87 66 53 60 71 60 47 51 56 69 60 53 59
28 27 30 32 29 24 22 21 23 46 100 100 100 100 100 100 100 100 100 100 100 85 74 77 83 87 83 97 95 89 72 97 99 72 71 76 76 81 88 71 76 76 76 75 71 69 65
27 32 30 35 31 32 28 23 20 24 51 100 100 100 100 100 100 100 100 100 100 100 100 83 78 76 84 92 99 73 73 72 78 82 61 75 89 75 97 84 84 80 79 71 72 77 76
22 29 26 32 30 31 34 29 22 22 31 55 100 100 100 100 99 100 100 100 100 100 100 100 99 98 96 91 92 78 91 84 91 91 83 81 96 94 89 98 99 100 100 98 99 94 86
18 27 27 31 32 36 39 36 26 21 22 33 53 100 100 100 100 100 100 100 100 100 100 100 100 100 100 100 100 98 95 96 85 100 100 100 100 100 100 100 100 100 100 96 96 93 79
18 20 30 27 31 33 41 34 29 25 21 30 37 51 100 100 100 86 100 100 100 100 100 100 100 100 100 96 93 99 88 100 100 100 100 100 100 100 100 100 100 100 98 98 92 75 50
21 20 25 25 30 34 42 43 44 29 25 23 43 48 49 90 100 100 100 100 100 100 100 100 100 100 100 100 100 100 96 86 100 100 100 100 100 100 100 100 100 100 100 93 76 56 43
19 20 26 27 31 35 39 41 40 35 28 25 31 47 61 57 83 100 100 100 100 100 100 100 100 99 100 100 100 100 100 100 100 100 100 100 100 100 97 92 86 79 69 61 46 45 39
16 20 23 27 28 32 38 40 36 40 33 32 30 28 46 61 65 89 100 100 100 100 100 100 100 100 100 100 100 100 100 100 100 100 100 100 100 91 89 87 80 52 54 53 44 33 36
14 20 24 26 25 28 32 33 36 37 40 36 37 29 32 42 58 63 92 100 100 100 100 100 100 100 100 100 95 100 95 95 99 99 99 91 79 79 73 77 75 56 55 50 34 34 33
12 18 19 20 21 22 26 34 38 40 41 40 36 37 35 36 42 48 70 93 98 100 100 100 100 100 100 100 100 99 100 100 96 100 100 92 84 81 78 72 66 46 42 33 32 31 32
9 11 15 16 17 19 21 34 40 35 40 46 43 40 44 40 37 43 48 72 76 74 85 94 95 98 100 100 100 100 98 94 91 85 84 86 83 77 72 67 49 34 24 26 30 36 37